Regional Weather Roundup
Issued by NWS Portland, ME

Current Version | Previous Version | Text Only | Print | Product List | Glossary Off
Versions: 1 2 3 4 5 6 7 8 9 10 11 12 13 14 15 16 17 18 19 20 21 22 23 24 25 26 27 28 29 30 31 32 33 34 35 36 37 38 39 40 41 42 43 44 45 46 47 48 49 50
000 ASUS41 KGYX 240905 RWRGYX WEATHER ROUNDUP FOR MAINE AND NEW HAMPSHIRE NATIONAL WEATHER SERVICE GRAY ME 500 AM EDT MON JUL 24 2017 MEZ002-005-006-010-012-015-018-020-021-024-026-027-029-241000- MAINE CITY SKY/WX TMP DP RH WIND PRES REMARKS PORTLAND CLOUDY 60 54 80 CALM 29.97S SANFORD N/A 55 53 93 CALM 29.97S BAR HARBOR MOCLDY 50 49 96 CALM 30.01R WISCASSET CLOUDY 57 53 86 CALM 30.01R ROCKLAND MOCLDY 53 51 93 CALM 29.99R FRYEBURG CLOUDY 58 57 97 CALM 29.98R LEWISTONAUBURN CLOUDY 57 54 89 CALM 29.99R AUGUSTA MOCLDY 58 51 78 CALM 30.00R WATERVILLE CLOUDY 54 51 90 CALM 29.97R BANGOR MOCLDY 53 51 93 CALM 30.00R GREENVILLE N/A 53 48 83 NE5 29.99R MILLINOCKET PTCLDY 48 47 96 CALM 30.02R HOULTON CLEAR 42 42 100 CALM 30.01R PRESQUE ISLE CLOUDY 43 41 93 CALM 30.03R FRENCHVILLE CLOUDY 46 41 82 NW6 30.03R CARIBOU CLOUDY 47 43 86 CALM 30.02R $$ NHZ002-005-008-009-011-012-014-241000- NEW HAMPSHIRE CITY SKY/WX TMP DP RH WIND PRES REMARKS PORTSMOUTH CLOUDY 62 57 84 NE3 29.94S ROCHESTER CLOUDY 57 52 83 CALM 29.95S NASHUA CLOUDY 63 57 81 CALM 29.95R MANCHESTER CLOUDY 62 54 74 NE3 29.93R CONCORD CLOUDY 60 54 80 N3 29.94S LACONIA CLOUDY 61 51 70 CALM 29.96S PLYMOUTH MOCLDY 59 56 91 CALM 29.95S BERLIN CLOUDY 52 49 89 CALM 29.98R WHITEFIELD MOCLDY 60 53 77 VRB5 29.94R JAFFREY LGT RAIN 61 50 67 CALM 29.94S KEENE CLOUDY 60 53 77 CALM 29.92S LEBANON CLOUDY 63 54 72 CALM 29.92R MT WASHINGTON FOG 45 45 100 S21 N/A VSB 0 $$ VTZ005-007-008-241000- VERMONT CITY SKY/WX TMP DP RH WIND PRES REMARKS ST JOHNSBURY N/A 59 55 87 MISG 29.91S MONTPELIER CLOUDY 59 56 89 CALM 29.95S BURLINGTON CLOUDY 68 52 56 SE8 29.85F $$ MAZ007-012-024-CTZ003-RIZ002-NYZ038-NYZ072-241000- SOUTHERN NEW ENGLAND AND NY CITY SKY/WX TMP DP RH WIND PRES REMARKS BOSTON CLOUDY 65 59 81 E9 29.93 WORCESTER CLOUDY 60 52 74 E6 29.93S NANTUCKET CLOUDY 63 50 62 E10 29.91R PROVIDENCE LGT RAIN 63 59 87 NE6 29.90F HARTFORD CLOUDY 64 58 80 NE5 29.88S ALBANY LGT RAIN 64 60 87 SE3 29.85F NEW YORK CITY RAIN 71 69 93 NE13 29.77F $$ ANZ081-ANZ082-ANZ150-NHZ014-MEZ023>029-241000- COASTAL MARINE OBSERVATIONS STATION/POSITION TIME TEMP WIND PRES WAVE AIR SEA DIR/SP/G HT/PER (UTC) (F) (DEG/KT/KT) (MB) (FT/S) MOUNT DESERT ROC 0900 58 1015.9R MATINICUS ROCK 0800 58 120/ 5/ 6 1014.8R ISLE OF SHOALS 0800 64 60/ 3/ 3 1014.1R JEFFREYS LEDGE 0806 64 N/A 2/11 CASHES LEDGE BUO 0750 63 64 1015.0 1/10 GEORGES BANK BUO 0750 62 62 1013.0 5/ 7 $$ .............KEY.............. WCI - WIND CHILL TC - TEMPERATURE IN CELSIUS VSB - VISIBILITY IN MILES HX - HEAT INDEX FAIR- INDICATES FEW OR NO CLOUDS BELOW 12,000 FT, WITH NO SIGNIFICANT WEATHER AND/OR OBSTRUCTIONS TO VISIBILITY.

USA.gov is the U.S. government's official web portal to all federal, state and local government web resources and services.